Vorticity
8 7 6 7 7 8 7 6 6 7 7 7 8 8 8 8 8 6 6 6 6 6 5 5 5 5 4 4 5 6 3 2 7 11 10 5 4 6 6 6 6 4 3 3 2 1 1 1 1 1 4 5 1 2 10 20 21 13 6 6 6 5 5 5 6 7 8 9 7 4 3 3 4 4 4 3 4 4 5 5 6 6 7 7 7
8 8 8 8 9 8 5 3 4 5 6 6 7 8 9 9 9 9 9 8 7 7 6 5 5 5 4 4 5 6 4 2 5 11 12 7 3 5 6 6 6 5 4 4 3 3 2 1 1 1 4 6 3 6 12 13 14 12 8 5 4 5 6 7 7 7 9 11 8 4 4 3 4 4 4 4 4 4 5 5 7 7 7 7 7
7 8 8 9 10 7 4 4 5 6 6 7 8 8 9 9 9 11 12 11 9 8 8 7 6 5 5 5 5 6 6 4 5 9 12 10 4 4 6 6 5 5 4 4 3 3 2 -0 -1 -0 3 6 5 7 10 7 7 10 9 5 4 5 5 6 7 8 11 11 8 6 6 4 3 4 4 4 4 4 6 6 7 8 8 7 6
7 7 6 8 8 6 5 5 6 8 8 7 7 7 8 9 11 12 13 14 14 13 11 10 9 8 8 7 7 7 7 6 6 7 10 11 6 3 5 6 6 5 5 4 4 4 2 -1 -2 -0 2 6 8 7 6 6 7 8 8 8 10 11 9 7 6 8 11 11 7 5 5 4 3 3 3 4 4 5 6 7 8 9 8 6 5
7 7 6 7 6 6 6 6 7 10 10 8 6 7 8 9 11 13 12 13 14 15 15 15 14 12 11 10 8 8 8 9 9 8 8 10 7 4 4 5 6 5 5 5 3 4 3 -0 -1 1 2 6 8 6 4 4 4 4 7 12 15 15 12 9 8 10 12 11 7 4 4 3 3 3 3 4 5 6 7 8 9 8 6 5 5
6 8 6 5 7 8 7 6 9 12 11 8 7 8 9 11 13 14 13 13 16 19 22 22 20 17 14 13 11 10 10 10 11 12 9 9 8 5 3 5 5 5 5 5 4 4 4 2 1 1 2 3 3 4 8 10 6 2 6 12 12 11 11 11 10 11 12 10 6 4 3 3 3 3 3 4 5 6 8 9 9 8 6 3 3
5 6 5 4 7 8 7 7 10 12 10 7 8 8 9 13 16 16 16 17 18 18 20 22 24 22 18 16 15 13 13 12 14 15 11 8 8 6 4 5 5 5 4 4 4 5 3 2 2 2 2 1 2 3 8 12 7 3 11 13 5 3 8 10 9 8 9 8 6 4 4 3 3 3 3 4 6 6 8 9 8 7 6 4 3
7 5 4 6 9 8 8 9 10 11 9 6 6 7 9 13 15 15 16 15 12 11 11 13 18 20 18 17 16 15 16 16 16 17 13 9 9 7 4 5 6 4 4 3 4 6 4 2 2 2 0 1 3 2 3 8 7 9 19 13 -3 -1 11 15 16 11 6 5 4 4 5 3 3 4 3 4 6 8 10 9 6 5 4 6 8
4 4 5 9 10 9 8 9 10 11 8 7 7 7 8 11 11 12 12 7 5 5 5 5 8 11 14 14 13 14 15 16 17 17 14 11 10 8 5 6 6 5 4 3 3 5 5 2 1 1 0 1 4 3 1 4 3 11 22 10 -7 3 13 12 13 11 7 7 6 5 7 5 4 4 3 5 8 10 10 8 6 5 3 2 4
8 10 12 12 10 9 8 8 10 9 8 9 9 7 7 8 9 9 6 3 2 0 1 4 4 4 7 10 12 13 13 14 13 13 13 13 13 10 7 6 7 7 6 5 4 4 4 3 1 -0 -0 1 4 3 3 3 2 9 19 7 -10 -6 -0 -1 6 11 8 8 10 9 8 8 7 5 5 6 9 11 11 8 6 4 5 4 3
17 17 14 9 8 10 10 10 10 10 10 11 10 7 7 7 8 7 4 3 2 -1 0 4 4 3 4 5 8 9 11 13 14 14 15 15 14 12 8 6 6 7 7 7 6 4 4 3 2 -0 0 2 3 2 2 3 1 4 10 7 -4 -7 -5 1 18 30 22 8 6 9 10 11 12 9 8 9 10 12 10 7 6 4 5 6 5
14 13 9 7 11 15 14 14 13 12 12 11 9 8 7 6 7 7 6 5 2 -0 1 3 4 6 5 4 6 7 8 10 12 12 13 13 14 13 9 7 6 6 7 8 8 6 4 5 4 0 -0 2 3 2 1 1 3 3 6 9 5 -1 -4 -2 7 21 23 12 5 8 10 14 16 13 11 11 11 12 10 6 6 6 5 7 6
10 9 10 12 15 15 13 12 11 11 11 9 8 8 7 7 8 9 8 5 1 0 3 5 6 7 7 6 5 5 6 8 12 13 11 9 9 9 8 6 5 5 5 7 8 7 5 5 5 2 0 1 3 5 2 -1 1 4 4 4 2 -2 -1 -1 -3 2 10 13 13 11 10 14 17 14 11 10 11 12 10 6 6 6 5 6 7
9 9 11 13 11 8 8 9 9 10 9 9 11 11 9 8 7 6 5 2 1 3 6 8 8 8 10 9 6 5 6 6 10 13 13 11 10 8 6 5 4 4 4 5 7 8 6 6 5 2 -0 0 2 5 5 0 0 4 3 -0 -1 -2 -2 1 2 -1 -1 5 12 14 11 13 17 13 8 9 13 12 8 6 6 5 5 6 6
7 9 10 8 6 5 5 6 9 12 11 8 9 11 12 10 7 4 2 3 6 7 6 5 5 6 8 10 10 8 4 2 5 9 12 14 12 8 6 5 6 6 4 4 5 6 7 7 6 4 1 -0 1 4 5 2 -1 -1 -0 -2 -2 -0 -2 -1 3 2 -2 -2 7 14 13 12 14 13 7 8 14 12 8 7 6 5 5 6 6
6 6 5 3 4 8 8 5 5 10 14 11 7 8 10 10 8 5 3 4 5 4 1 -1 -1 1 3 5 7 8 6 3 1 1 6 11 12 10 9 10 10 8 5 5 4 5 7 6 5 5 3 1 1 2 4 4 1 -2 -0 -0 -1 -2 -2 -0 2 3 1 -0 4 10 13 11 12 11 7 9 15 12 7 7 6 6 6 6 6
4 3 2 2 4 7 8 7 4 5 12 12 7 5 6 6 8 9 8 7 5 3 4 3 2 2 2 0 2 6 9 8 3 1 0 3 6 8 8 11 13 12 10 8 5 5 6 6 5 5 3 2 3 2 2 3 2 -0 -1 -1 -1 -1 -1 -0 1 2 3 3 4 8 11 11 11 10 7 10 15 12 8 7 6 6 7 7 8
6 5 5 7 9 7 7 11 11 7 8 8 6 5 6 6 6 4 5 6 7 6 6 5 4 4 3 2 2 3 5 6 7 6 1 -2 2 5 6 8 10 12 15 15 13 11 8 6 5 3 1 2 2 3 2 0 2 3 -0 -2 -2 -2 -1 -1 0 3 2 1 3 6 8 11 13 11 7 9 14 12 8 7 6 6 7 9 10
8 8 9 9 10 9 7 10 12 7 4 5 7 8 9 8 5 2 1 3 5 5 5 4 5 6 8 11 10 10 9 7 7 10 9 6 3 1 2 4 5 6 9 12 15 15 13 12 8 3 2 2 1 2 1 -0 2 2 -1 -1 -2 -1 1 -1 1 8 5 -7 -7 2 7 12 16 14 7 7 13 13 8 7 6 6 7 7 8
7 6 6 5 4 6 7 7 7 4 3 5 5 4 4 6 7 4 2 3 3 2 2 5 5 3 2 5 9 12 13 11 9 10 12 10 7 3 3 5 4 2 2 4 8 10 11 13 12 7 4 3 3 3 -1 -2 2 1 0 1 -3 -3 1 -2 -0 9 6 -8 -11 -2 5 9 15 17 11 6 11 13 9 8 7 6 7 7 6
4 2 1 1 2 4 6 5 3 3 4 4 2 -0 1 6 7 2 -1 1 1 -0 0 4 6 3 -1 0 3 4 7 10 9 8 10 12 12 9 6 5 4 3 2 2 3 4 6 9 12 12 7 2 4 4 -0 -1 -1 -3 -1 -0 -4 -2 1 -0 0 1 0 3 1 -2 3 10 14 19 13 5 9 13 8 7 8 7 8 8 6
6 5 3 1 0 1 2 1 1 2 3 3 3 4 4 6 6 4 3 4 4 3 0 1 3 2 -0 1 3 4 7 11 11 10 10 10 10 9 8 8 7 4 4 3 0 -0 1 2 5 11 9 5 5 3 -1 -0 -0 -1 1 -2 -3 1 -2 -2 4 -1 -2 13 11 -1 6 14 14 20 15 3 7 13 8 7 8 8 9 9 6
6 8 9 8 5 4 3 1 1 1 2 2 4 6 6 5 4 4 6 9 10 6 1 0 2 2 2 5 5 5 7 10 12 14 12 8 7 7 4 4 6 5 8 12 10 6 5 2 4 11 12 10 13 13 6 2 0 2 3 -0 1 4 -1 1 8 3 3 17 13 4 12 12 7 18 16 3 6 12 8 7 8 7 10 9 6
4 5 7 7 5 3 3 4 5 5 5 7 9 9 7 6 4 4 5 8 9 6 2 3 3 3 4 7 6 5 6 8 11 14 12 8 6 4 0 2 7 6 6 10 12 10 10 7 5 9 11 8 8 10 10 11 11 10 8 5 5 6 5 9 9 0 6 20 12 -1 0 1 6 20 15 1 5 11 7 8 8 8 11 10 7
5 5 4 4 4 3 4 7 11 11 9 9 9 7 6 5 5 6 6 5 5 6 5 5 5 6 7 6 4 5 6 8 11 13 10 6 6 8 9 8 7 5 5 7 6 2 2 3 3 8 13 8 4 4 6 9 13 12 8 9 12 12 10 10 6 0 5 15 8 -9 -11 2 18 23 11 1 5 9 7 8 7 8 11 10 7
6 6 6 7 6 6 6 6 8 8 6 7 6 5 6 7 5 4 6 6 6 7 7 6 6 7 5 1 0 3 6 10 12 11 9 7 5 8 12 10 8 7 6 6 6 3 3 4 3 5 8 8 13 20 16 8 6 7 3 -2 3 14 17 13 13 12 9 9 6 -3 3 24 32 20 7 3 4 7 9 8 6 9 11 9 7
6 5 5 5 4 5 5 4 5 4 3 5 6 5 5 5 2 2 6 8 8 7 7 6 5 4 1 -0 2 5 7 9 11 11 11 10 9 8 8 6 5 6 4 3 6 9 9 6 4 5 5 2 6 13 13 10 15 24 24 11 3 12 22 23 23 21 15 14 9 1 11 33 33 16 7 5 3 6 10 7 6 10 11 9 8
8 7 6 6 5 5 4 4 3 2 2 3 4 2 1 2 3 6 8 7 6 6 4 3 3 3 3 4 4 5 6 7 9 9 6 4 6 8 6 2 2 5 6 3 3 7 9 5 5 6 1 -1 5 9 7 7 12 22 33 33 24 15 9 6 9 13 16 19 14 7 17 28 23 13 9 3 1 7 9 6 7 10 10 10 9
9 8 7 6 4 3 3 3 2 1 3 5 6 5 6 8 10 11 9 6 5 4 3 4 7 7 6 8 7 6 7 8 8 7 4 2 4 5 4 3 2 3 3 1 3 9 9 6 10 11 2 -0 5 3 -2 -1 0 1 12 30 38 23 -5 -17 -6 8 13 13 15 23 30 24 14 14 11 1 1 9 8 5 8 10 10 10 9
11 10 8 6 5 4 5 5 7 11 14 17 19 19 19 19 16 13 11 9 7 7 6 8 10 8 7 9 9 7 8 9 8 7 7 5 3 3 4 4 2 2 4 5 7 12 11 9 11 11 6 5 5 5 13 14 1 -6 8 31 44 31 5 -2 10 17 13 16 32 45 39 19 11 15 8 -1 3 9 6 6 9 10 11 11 8
11 11 10 10 11 11 12 14 17 19 18 18 19 20 19 18 15 12 11 9 7 7 6 5 4 4 5 6 7 8 8 8 6 6 6 6 4 4 4 1 -2 -0 3 3 4 8 10 8 0 -8 -10 -8 -9 -1 11 3 -12 -0 24 32 23 9 -1 4 12 7 6 26 47 46 26 11 13 15 4 -1 5 8 5 7 9 10 11 10 8
7 7 8 11 13 14 14 14 13 11 10 9 8 8 8 9 8 7 6 5 4 4 4 3 4 5 4 5 5 6 7 7 7 9 10 11 11 10 7 5 4 5 6 6 5 4 4 4 4 6 10 11 10 13 10 -1 5 27 30 10 1 3 5 9 7 -4 3 31 45 31 15 12 16 12 2 0 6 7 5 7 9 10 11 11 9
5 6 8 11 12 11 10 8 8 8 8 7 5 4 4 4 5 5 5 5 5 4 4 5 6 5 5 6 6 6 7 9 10 12 14 16 17 16 12 10 9 8 8 6 3 3 6 7 6 7 9 9 10 14 14 15 25 26 5 -9 1 9 4 -1 -4 -1 20 44 41 20 13 17 15 7 2 3 6 6 6 7 9 11 11 11 10
5 7 9 8 8 6 6 6 7 6 5 4 3 3 3 4 5 4 3 4 5 5 5 6 7 7 8 9 8 7 7 7 9 13 17 18 18 17 15 13 13 14 15 15 10 5 4 4 3 7 11 8 2 -0 5 16 24 16 3 2 6 4 3 3 2 15 43 53 33 13 13 18 12 4 3 5 6 6 6 7 9 11 11 11 11
3 5 6 5 4 3 3 4 5 5 6 6 5 5 5 5 4 3 4 5 4 2 3 6 10 12 11 11 11 10 11 12 13 14 16 15 15 15 14 13 12 11 13 17 16 10 9 12 15 18 13 3 -3 0 12 27 33 20 8 11 14 15 20 19 15 25 41 36 19 14 17 16 9 4 4 6 6 5 6 7 8 10 12 12 10
2 3 3 4 2 1 1 3 5 8 9 7 6 6 5 4 4 4 6 6 3 4 7 12 15 16 14 14 15 14 14 16 15 15 16 16 16 16 15 16 20 22 24 26 22 16 15 14 8 5 5 7 17 26 27 30 34 23 11 14 18 11 8 14 24 34 32 22 18 20 17 10 7 5 4 6 6 5 6 8 8 10 13 12 10
2 2 5 5 2 1 4 5 5 10 11 9 8 8 6 7 9 7 3 2 5 12 18 19 19 18 16 15 15 15 15 16 14 13 14 13 14 19 20 23 28 26 22 26 27 18 13 15 16 22 31 35 35 25 3 -0 22 35 24 8 -2 -3 12 32 37 29 20 17 19 17 11 8 7 4 4 7 6 5 7 8 8 11 13 11 10
2 3 4 4 2 6 12 11 9 11 11 8 9 10 7 5 3 -1 -2 3 13 19 19 17 16 16 14 14 14 12 13 13 11 11 12 13 18 22 19 27 47 47 33 40 53 42 24 22 24 19 12 4 -4 -12 -15 2 30 33 6 -15 -8 18 42 45 28 16 18 19 16 12 10 8 4 4 7 8 5 5 7 8 9 12 13 11 11
5 5 4 6 11 17 19 15 11 11 12 11 15 20 20 18 13 9 11 16 18 17 13 10 11 11 9 10 12 11 11 12 12 15 19 19 23 24 19 36 81 100 77 60 63 52 30 19 13 3 -2 3 9 16 28 39 33 8 -9 1 27 45 42 26 14 18 22 17 10 10 9 5 4 6 8 6 4 6 8 8 9 12 12 12 12
10 11 13 17 20 18 13 9 11 14 16 16 17 19 23 27 27 23 21 18 14 12 9 7 9 10 9 11 14 13 14 15 14 16 20 17 22 36 39 39 61 83 75 54 47 42 30 20 13 12 21 34 40 38 30 14 -3 -3 17 37 38 29 22 16 15 17 16 11 10 10 6 4 7 8 7 6 5 5 7 8 10 12 12 13 12
16 18 18 17 13 7 5 7 12 14 15 15 15 13 15 18 17 15 14 14 13 12 10 9 10 12 12 15 17 15 15 16 14 13 13 7 10 37 55 44 27 31 45 52 48 41 35 32 29 29 32 29 19 8 0 -1 8 26 38 33 19 16 21 18 13 12 13 11 9 7 5 6 9 8 7 7 5 4 7 10 10 11 13 13 12
18 15 11 8 4 2 3 5 5 5 6 9 12 13 14 15 14 14 15 15 13 12 12 13 15 15 12 12 13 12 13 14 12 12 12 9 11 31 55 56 35 18 23 37 39 32 35 42 36 17 -1 -12 -14 -5 12 29 38 35 25 18 18 20 17 12 11 14 14 9 6 6 7 8 8 7 8 7 5 5 8 9 10 12 13 12 12
12 8 5 4 2 3 4 4 3 4 5 7 11 13 13 14 14 14 15 15 13 13 15 16 15 13 11 10 11 13 14 14 14 15 16 21 27 30 37 53 62 52 34 23 10 -8 -15 -14 -11 -5 6 16 26 37 43 37 26 17 14 16 15 10 8 13 17 14 9 6 7 8 7 7 8 9 8 7 6 6 7 8 10 11 11 12 13
7 4 4 3 1 3 8 10 7 6 7 9 14 18 18 17 17 15 13 13 13 13 15 16 14 12 11 12 14 17 17 16 16 16 13 17 25 22 16 29 49 38 5 -18 -22 -20 -18 -16 -6 19 41 42 32 28 24 15 9 9 9 8 9 12 16 17 12 7 7 9 8 7 7 8 9 9 8 7 6 5 6 9 10 10 11 13 13
4 3 5 1 -5 -1 9 13 10 11 13 14 16 18 17 16 15 14 12 12 14 16 18 17 13 10 10 13 15 16 15 12 9 7 5 8 16 19 16 22 32 25 9 5 16 29 38 37 28 20 16 8 4 8 10 7 7 8 8 11 17 17 12 8 6 7 9 8 6 7 9 9 9 10 9 8 6 5 6 8 8 9 11 13 12
4 5 5 1 -4 1 11 14 13 15 16 15 14 13 12 10 11 13 14 16 18 19 17 14 11 9 11 13 12 12 13 11 8 9 13 16 20 22 18 14 12 12 16 22 23 20 21 25 18 5 -2 1 6 9 7 6 9 13 15 17 15 8 5 7 9 9 7 7 8 9 9 8 10 10 8 7 7 7 6 7 7 9 11 12 11
7 4 0 -0 4 9 13 13 13 14 14 14 13 12 10 8 10 14 17 18 18 18 15 13 11 11 11 13 13 13 14 14 13 16 19 19 18 21 23 21 17 13 12 13 13 10 10 11 9 5 4 6 7 6 9 13 17 16 13 10 6 5 7 9 8 7 9 10 9 8 9 10 11 10 8 8 8 6 5 6 7 8 10 11 10
9 6 6 8 11 13 12 12 13 13 14 15 16 15 14 13 14 15 16 17 17 16 14 11 10 9 9 10 11 10 10 9 8 10 12 12 11 13 18 22 26 24 16 9 8 7 5 5 6 7 8 9 10 12 16 16 13 10 7 6 6 7 8 8 9 10 10 9 8 10 11 11 10 10 10 9 8 6 7 7 7 8 10 10 9
12 15 16 16 15 15 15 15 15 14 14 15 16 16 16 16 15 15 15 15 16 14 12 10 10 10 8 8 7 8 10 10 8 7 11 16 17 13 10 16 28 34 26 12 3 -0 2 8 12 12 12 13 14 14 13 11 8 7 6 6 7 9 10 10 10 9 8 9 11 11 10 10 11 12 11 9 8 8 7 6 7 8 9 9 9
15 19 20 19 19 19 19 18 17 16 16 17 17 17 16 15 12 11 11 12 13 13 13 13 12 10 8 8 9 9 8 7 8 13 20 23 20 12 8 15 28 32 25 14 2 -6 -6 2 7 9 11 14 14 12 10 7 5 6 7 7 9 9 8 8 8 8 9 10 9 8 9 12 12 11 11 10 9 8 7 7 8 8 8 8 9
17 18 18 19 19 18 17 16 16 14 14 15 15 15 15 14 13 12 12 12 11 10 10 11 11 12 13 12 11 13 14 17 24 32 34 28 17 7 7 17 23 19 14 12 5 -6 -8 1 8 10 11 13 11 9 8 6 5 7 9 8 8 8 8 9 10 10 9 9 9 9 11 11 10 10 11 10 8 8 9 8 8 8 7 8 8
Height
5907 5908 5909 5910 5911 5912 5913 5913 5913 5914 5914 5915 5916 5917 5917 5918 5919 5919 5920 5921 5922 5924 5924 5925 5925 5926 5926 5927 5927 5927 5927 5927 5928 5928 5928 5928 5928 5929 5929 5929 5929 5929 5928 5928 5927 5927 5926 5925 5924 5924 5923 5923 5922 5921 5920 5919 5918 5917 5916 5915 5914 5913 5912 5911 5910 5909 5909 5908 5907 5905 5904 5902 5900 5899 5897 5895 5894 5893 5891 5889 5887 5885 5883 5881 5878
5905 5906 5907 5908 5909 5910 5911 5911 5912 5912 5912 5913 5914 5915 5915 5916 5916 5917 5918 5919 5920 5921 5922 5923 5923 5923 5924 5924 5925 5925 5925 5925 5925 5926 5926 5926 5926 5927 5927 5927 5927 5927 5927 5927 5927 5926 5925 5924 5923 5922 5922 5921 5921 5920 5919 5918 5917 5916 5916 5915 5914 5912 5910 5909 5908 5908 5907 5907 5906 5904 5903 5901 5899 5897 5895 5893 5892 5890 5888 5887 5885 5883 5881 5879 5876
5903 5904 5905 5906 5907 5908 5909 5910 5910 5911 5911 5912 5912 5913 5913 5913 5914 5915 5916 5917 5918 5919 5920 5920 5921 5921 5921 5922 5922 5922 5922 5923 5923 5923 5924 5924 5924 5925 5925 5925 5925 5925 5925 5926 5925 5924 5923 5923 5922 5921 5921 5920 5919 5919 5918 5917 5916 5915 5914 5913 5913 5911 5910 5908 5907 5906 5905 5905 5904 5903 5901 5900 5897 5895 5893 5891 5890 5888 5886 5884 5882 5881 5879 5876 5873
5901 5902 5903 5904 5905 5906 5907 5908 5908 5909 5910 5911 5911 5911 5911 5912 5912 5913 5914 5914 5916 5916 5917 5917 5918 5918 5919 5919 5919 5919 5920 5920 5920 5921 5921 5922 5922 5922 5923 5923 5923 5923 5924 5924 5923 5923 5922 5921 5921 5920 5920 5919 5918 5917 5916 5915 5914 5913 5912 5911 5910 5909 5908 5907 5906 5905 5904 5902 5901 5901 5899 5898 5895 5893 5891 5889 5888 5886 5884 5881 5879 5877 5875 5873 5870
5900 5901 5901 5901 5902 5904 5905 5906 5906 5908 5908 5908 5909 5909 5909 5910 5911 5911 5912 5912 5913 5913 5914 5914 5915 5915 5915 5916 5916 5916 5916 5917 5917 5918 5918 5919 5919 5920 5921 5921 5921 5921 5921 5922 5921 5921 5920 5920 5920 5919 5919 5918 5917 5916 5915 5914 5912 5911 5909 5908 5908 5907 5906 5905 5904 5903 5902 5900 5899 5898 5896 5895 5893 5891 5889 5887 5885 5883 5881 5879 5876 5874 5872 5869 5867
5899 5899 5899 5900 5901 5902 5903 5904 5905 5905 5906 5906 5906 5906 5907 5908 5909 5909 5910 5910 5911 5911 5911 5911 5911 5912 5912 5912 5912 5912 5913 5913 5914 5915 5915 5916 5917 5917 5918 5919 5919 5919 5919 5920 5920 5919 5919 5919 5918 5918 5917 5917 5916 5914 5913 5912 5911 5910 5908 5907 5906 5905 5904 5903 5902 5901 5899 5898 5896 5895 5893 5892 5890 5888 5887 5884 5882 5880 5878 5876 5873 5871 5869 5866 5863
5896 5897 5898 5898 5900 5901 5901 5902 5903 5903 5903 5904 5904 5904 5905 5906 5907 5907 5908 5908 5909 5909 5909 5909 5909 5909 5908 5909 5909 5909 5909 5910 5911 5912 5912 5913 5914 5915 5916 5916 5916 5916 5917 5917 5917 5917 5917 5917 5917 5917 5916 5915 5914 5913 5912 5911 5910 5908 5907 5906 5905 5903 5901 5900 5899 5898 5897 5895 5894 5892 5891 5889 5887 5885 5884 5882 5880 5877 5875 5872 5870 5868 5867 5864 5860
5893 5895 5895 5896 5898 5899 5899 5899 5900 5900 5901 5901 5902 5902 5904 5904 5905 5905 5906 5907 5907 5907 5907 5907 5907 5907 5906 5906 5906 5906 5906 5907 5908 5909 5910 5911 5912 5912 5913 5914 5914 5914 5914 5914 5915 5915 5915 5915 5915 5915 5914 5913 5913 5911 5910 5909 5908 5907 5905 5904 5903 5901 5899 5898 5896 5895 5894 5893 5892 5890 5888 5886 5884 5882 5880 5879 5877 5874 5872 5869 5866 5864 5863 5860 5857
5890 5891 5892 5894 5896 5896 5896 5896 5897 5898 5898 5899 5900 5901 5902 5903 5903 5904 5904 5905 5905 5905 5905 5905 5905 5905 5905 5904 5904 5904 5904 5905 5905 5906 5907 5908 5909 5909 5910 5911 5911 5911 5911 5912 5912 5912 5912 5913 5913 5913 5912 5911 5910 5910 5909 5908 5907 5905 5903 5902 5901 5899 5897 5896 5894 5893 5892 5890 5889 5887 5885 5883 5881 5879 5877 5876 5874 5871 5868 5866 5863 5860 5858 5855 5852
5886 5888 5890 5892 5893 5893 5893 5894 5894 5895 5896 5897 5898 5899 5900 5901 5902 5902 5903 5903 5903 5904 5904 5904 5904 5903 5903 5903 5902 5902 5902 5903 5903 5904 5905 5905 5906 5906 5907 5908 5908 5908 5908 5909 5909 5909 5910 5910 5911 5911 5910 5909 5908 5907 5907 5906 5905 5904 5902 5900 5898 5897 5896 5894 5893 5891 5889 5888 5886 5884 5882 5880 5878 5876 5874 5872 5871 5868 5865 5862 5860 5857 5854 5851 5847
5884 5886 5887 5889 5889 5890 5891 5891 5892 5893 5894 5895 5896 5897 5897 5898 5899 5900 5901 5901 5901 5902 5902 5902 5902 5902 5901 5901 5900 5900 5900 5901 5901 5901 5902 5902 5902 5903 5903 5904 5905 5905 5906 5906 5906 5907 5907 5907 5908 5908 5908 5907 5905 5904 5904 5903 5902 5901 5900 5898 5896 5895 5893 5892 5890 5887 5885 5884 5883 5881 5879 5877 5874 5872 5870 5868 5867 5865 5862 5859 5856 5854 5851 5848 5843
5882 5883 5884 5885 5886 5887 5888 5889 5889 5890 5891 5892 5893 5894 5895 5896 5897 5898 5899 5899 5899 5899 5899 5900 5899 5899 5899 5899 5898 5898 5898 5898 5899 5899 5899 5899 5899 5899 5900 5901 5901 5902 5903 5903 5903 5903 5904 5904 5905 5905 5905 5904 5902 5901 5900 5899 5898 5898 5897 5895 5893 5892 5890 5889 5887 5885 5883 5881 5880 5878 5876 5873 5871 5869 5867 5865 5863 5861 5859 5856 5853 5851 5848 5844 5839
5879 5880 5881 5883 5884 5885 5885 5886 5887 5888 5889 5890 5891 5891 5892 5893 5894 5895 5896 5896 5896 5896 5896 5896 5896 5896 5896 5896 5896 5895 5895 5896 5896 5896 5896 5895 5895 5895 5896 5897 5897 5898 5899 5899 5899 5899 5900 5900 5901 5901 5901 5900 5899 5898 5897 5895 5894 5893 5893 5892 5890 5888 5887 5886 5884 5882 5880 5878 5876 5874 5872 5869 5867 5865 5863 5862 5859 5857 5855 5852 5850 5847 5844 5840 5835
5876 5878 5879 5880 5882 5883 5883 5884 5885 5886 5886 5887 5888 5889 5890 5891 5892 5892 5892 5893 5893 5893 5893 5893 5893 5893 5893 5893 5893 5893 5893 5893 5893 5893 5892 5892 5892 5892 5892 5892 5893 5893 5894 5895 5895 5895 5896 5897 5897 5898 5897 5897 5895 5894 5893 5891 5890 5889 5889 5888 5886 5885 5883 5882 5880 5879 5877 5875 5872 5870 5868 5866 5864 5862 5860 5859 5856 5854 5852 5849 5846 5844 5840 5836 5832
5873 5875 5877 5878 5879 5880 5881 5882 5883 5884 5884 5885 5886 5887 5887 5888 5889 5890 5890 5890 5890 5890 5890 5890 5891 5890 5890 5890 5890 5890 5890 5890 5890 5890 5889 5888 5888 5888 5887 5887 5888 5889 5889 5890 5891 5891 5892 5893 5894 5894 5893 5893 5892 5890 5889 5888 5886 5885 5885 5884 5882 5881 5879 5878 5876 5874 5873 5871 5868 5866 5864 5862 5861 5859 5857 5855 5853 5851 5848 5846 5843 5840 5837 5833 5828
5871 5872 5874 5876 5877 5878 5879 5880 5880 5881 5882 5882 5884 5885 5886 5886 5887 5887 5887 5887 5887 5887 5887 5887 5887 5887 5887 5887 5887 5887 5888 5887 5887 5887 5887 5885 5884 5884 5884 5884 5885 5885 5885 5885 5886 5887 5888 5889 5890 5890 5889 5889 5888 5886 5884 5883 5882 5881 5881 5880 5878 5877 5875 5873 5872 5870 5869 5867 5865 5863 5861 5859 5857 5856 5854 5852 5850 5847 5845 5842 5840 5837 5833 5829 5825
5869 5870 5871 5873 5874 5875 5876 5877 5878 5878 5879 5880 5881 5883 5883 5884 5884 5884 5884 5884 5884 5884 5884 5884 5884 5883 5884 5884 5884 5884 5884 5884 5884 5884 5883 5882 5881 5880 5880 5880 5881 5881 5881 5881 5882 5882 5883 5884 5885 5885 5884 5884 5883 5882 5880 5879 5878 5878 5877 5875 5874 5872 5871 5869 5868 5866 5864 5863 5861 5859 5858 5856 5854 5852 5851 5848 5846 5844 5841 5839 5836 5833 5830 5826 5822
5867 5867 5869 5870 5871 5872 5873 5874 5875 5876 5876 5877 5879 5879 5880 5880 5880 5880 5880 5880 5881 5881 5880 5880 5880 5880 5880 5880 5880 5880 5880 5880 5881 5881 5880 5879 5877 5877 5877 5876 5876 5877 5877 5877 5877 5878 5878 5879 5879 5879 5879 5879 5879 5877 5875 5874 5873 5873 5872 5870 5869 5868 5866 5864 5863 5861 5860 5859 5857 5855 5854 5852 5850 5849 5847 5845 5842 5840 5838 5835 5833 5830 5826 5823 5819
5863 5864 5865 5866 5867 5869 5870 5871 5872 5873 5874 5875 5875 5875 5875 5875 5876 5876 5876 5876 5876 5876 5876 5876 5877 5877 5877 5876 5876 5875 5876 5876 5877 5877 5876 5875 5874 5873 5872 5872 5872 5872 5872 5872 5873 5873 5873 5873 5873 5874 5873 5873 5874 5873 5871 5869 5868 5869 5868 5866 5865 5864 5861 5859 5858 5857 5855 5854 5853 5851 5849 5848 5846 5844 5842 5840 5838 5836 5834 5831 5829 5826 5823 5819 5816
5860 5861 5861 5862 5864 5866 5867 5868 5869 5870 5871 5871 5871 5871 5871 5871 5871 5872 5872 5872 5872 5872 5872 5872 5873 5873 5873 5872 5872 5871 5871 5871 5872 5872 5872 5871 5870 5868 5867 5867 5867 5867 5867 5867 5867 5867 5866 5866 5868 5868 5867 5867 5869 5868 5865 5864 5863 5863 5863 5862 5860 5858 5856 5853 5853 5852 5850 5849 5848 5847 5845 5843 5841 5839 5838 5836 5834 5832 5830 5828 5825 5822 5819 5816 5812
5857 5858 5859 5860 5861 5862 5864 5865 5866 5867 5867 5867 5867 5867 5868 5868 5868 5868 5868 5868 5868 5868 5868 5868 5868 5868 5868 5868 5867 5867 5867 5866 5866 5867 5867 5867 5866 5864 5862 5862 5863 5862 5861 5861 5861 5861 5860 5860 5861 5862 5861 5861 5862 5862 5859 5858 5857 5857 5857 5857 5855 5853 5851 5848 5848 5847 5845 5843 5843 5842 5840 5838 5836 5835 5833 5832 5830 5828 5826 5824 5821 5819 5816 5812 5809
5854 5855 5856 5857 5858 5859 5860 5861 5862 5862 5862 5863 5863 5864 5864 5864 5864 5864 5864 5864 5864 5864 5863 5863 5863 5863 5863 5863 5862 5863 5863 5862 5861 5861 5862 5862 5861 5859 5858 5857 5857 5856 5855 5855 5855 5854 5854 5852 5853 5854 5855 5854 5855 5855 5853 5851 5850 5850 5850 5850 5848 5846 5844 5842 5842 5841 5839 5837 5837 5836 5835 5833 5831 5830 5828 5827 5826 5824 5822 5820 5817 5815 5812 5809 5805
5850 5851 5853 5854 5854 5855 5856 5856 5857 5858 5858 5859 5859 5859 5860 5860 5860 5860 5860 5859 5859 5859 5858 5858 5858 5858 5857 5857 5857 5857 5857 5857 5856 5857 5857 5856 5855 5855 5853 5852 5851 5850 5849 5849 5849 5848 5847 5845 5845 5848 5849 5847 5847 5848 5846 5844 5843 5843 5843 5843 5841 5839 5837 5836 5835 5835 5832 5831 5831 5831 5829 5827 5826 5825 5824 5822 5821 5819 5818 5815 5813 5811 5808 5805 5802
5845 5847 5848 5849 5850 5851 5852 5853 5853 5853 5854 5854 5854 5855 5855 5855 5855 5855 5855 5854 5854 5854 5853 5853 5853 5852 5852 5852 5851 5851 5851 5851 5851 5852 5852 5851 5850 5849 5848 5847 5845 5844 5843 5843 5842 5841 5839 5838 5839 5843 5843 5840 5840 5840 5838 5836 5835 5835 5835 5835 5833 5831 5830 5829 5828 5827 5826 5825 5825 5825 5824 5822 5821 5820 5819 5818 5817 5815 5813 5811 5809 5807 5804 5802 5799
5840 5842 5843 5844 5845 5846 5847 5848 5848 5849 5849 5849 5849 5850 5850 5850 5850 5850 5850 5849 5848 5848 5848 5848 5847 5847 5846 5846 5845 5845 5845 5844 5844 5845 5846 5845 5844 5844 5843 5842 5840 5838 5837 5837 5834 5831 5830 5830 5833 5835 5835 5833 5832 5831 5829 5828 5827 5827 5827 5826 5825 5824 5823 5822 5821 5820 5819 5819 5819 5819 5818 5817 5816 5815 5813 5812 5812 5810 5808 5807 5805 5803 5801 5798 5795
5835 5836 5837 5838 5839 5840 5841 5842 5843 5843 5843 5844 5844 5844 5844 5844 5844 5844 5844 5843 5843 5843 5843 5842 5841 5841 5840 5840 5840 5839 5837 5836 5837 5839 5839 5838 5838 5838 5837 5836 5834 5832 5830 5829 5825 5821 5821 5822 5825 5828 5827 5825 5824 5823 5821 5821 5820 5819 5818 5818 5817 5816 5816 5815 5814 5813 5812 5812 5812 5812 5811 5810 5809 5808 5808 5807 5806 5805 5804 5802 5800 5798 5796 5794 5792
5829 5831 5832 5833 5833 5834 5835 5836 5836 5837 5837 5838 5838 5839 5839 5839 5839 5838 5838 5838 5838 5838 5837 5837 5836 5835 5834 5834 5833 5831 5829 5829 5830 5832 5833 5832 5832 5832 5830 5829 5827 5824 5822 5821 5817 5813 5813 5815 5817 5819 5819 5817 5816 5816 5814 5814 5813 5811 5810 5810 5809 5809 5808 5807 5807 5806 5805 5804 5805 5805 5805 5804 5802 5802 5802 5802 5801 5800 5799 5797 5796 5794 5792 5790 5788
5824 5825 5826 5827 5828 5828 5829 5830 5830 5831 5831 5832 5832 5833 5833 5832 5832 5832 5832 5832 5832 5832 5831 5831 5830 5829 5828 5826 5824 5822 5822 5822 5823 5825 5827 5826 5825 5824 5822 5822 5820 5817 5815 5813 5807 5803 5805 5807 5808 5810 5811 5810 5809 5809 5808 5807 5806 5804 5803 5802 5801 5800 5798 5798 5799 5799 5798 5797 5797 5798 5799 5798 5796 5796 5796 5796 5796 5795 5794 5792 5791 5789 5788 5786 5783
5818 5819 5820 5821 5822 5822 5823 5824 5824 5825 5825 5826 5826 5826 5826 5826 5826 5826 5826 5826 5826 5825 5824 5823 5823 5822 5820 5819 5817 5815 5815 5815 5816 5817 5818 5818 5816 5815 5815 5814 5812 5810 5809 5804 5797 5794 5796 5799 5801 5803 5804 5803 5802 5801 5800 5800 5799 5798 5796 5796 5795 5793 5791 5792 5793 5793 5791 5790 5789 5790 5792 5791 5790 5790 5790 5790 5790 5790 5789 5788 5786 5785 5784 5782 5779
5812 5813 5814 5815 5815 5816 5817 5818 5818 5818 5819 5819 5819 5819 5819 5819 5819 5819 5820 5820 5819 5818 5817 5816 5816 5815 5813 5812 5811 5809 5808 5809 5808 5808 5809 5809 5808 5806 5806 5805 5804 5801 5799 5795 5789 5788 5790 5792 5794 5796 5796 5795 5795 5794 5793 5793 5792 5791 5790 5789 5789 5788 5789 5789 5788 5786 5784 5783 5782 5783 5784 5784 5784 5784 5784 5784 5785 5784 5783 5783 5782 5780 5779 5777 5775
5806 5807 5807 5808 5809 5810 5810 5811 5811 5812 5812 5812 5812 5813 5813 5814 5814 5813 5813 5813 5812 5812 5811 5810 5810 5808 5806 5805 5804 5803 5802 5802 5801 5800 5801 5802 5800 5798 5796 5796 5794 5791 5789 5786 5782 5780 5781 5783 5785 5787 5787 5787 5787 5787 5786 5785 5784 5784 5784 5783 5782 5783 5784 5783 5781 5779 5777 5776 5775 5776 5776 5777 5778 5778 5778 5779 5779 5779 5778 5778 5777 5776 5774 5773 5771
5799 5800 5801 5802 5803 5803 5804 5805 5805 5805 5805 5806 5806 5807 5807 5807 5808 5807 5807 5806 5805 5805 5804 5803 5802 5801 5799 5798 5797 5795 5795 5794 5793 5792 5792 5793 5792 5790 5788 5786 5784 5782 5780 5777 5773 5770 5770 5771 5773 5775 5777 5777 5778 5778 5777 5776 5776 5776 5776 5775 5775 5776 5775 5774 5773 5771 5770 5769 5769 5769 5770 5771 5772 5773 5773 5774 5774 5773 5773 5773 5772 5771 5770 5768 5767
5793 5794 5794 5795 5796 5797 5798 5798 5798 5799 5799 5799 5800 5800 5800 5800 5800 5800 5799 5799 5798 5797 5796 5795 5794 5792 5791 5790 5788 5787 5787 5785 5784 5783 5783 5783 5783 5781 5778 5776 5773 5771 5770 5768 5763 5761 5762 5762 5763 5765 5767 5768 5768 5769 5768 5768 5768 5769 5768 5767 5768 5768 5767 5765 5764 5764 5763 5763 5763 5764 5764 5766 5767 5767 5768 5768 5768 5768 5768 5768 5767 5766 5765 5764 5762
5786 5786 5787 5788 5789 5790 5791 5791 5792 5792 5792 5792 5792 5792 5792 5792 5792 5792 5791 5791 5790 5789 5787 5786 5785 5783 5782 5781 5779 5778 5777 5776 5774 5774 5773 5772 5772 5770 5768 5764 5760 5759 5759 5756 5752 5751 5753 5754 5755 5757 5758 5759 5760 5761 5761 5760 5761 5761 5761 5761 5762 5762 5759 5758 5759 5759 5758 5757 5758 5759 5759 5760 5761 5762 5763 5763 5763 5763 5763 5763 5762 5761 5761 5760 5758
5779 5780 5780 5781 5782 5783 5783 5784 5784 5784 5785 5785 5785 5784 5784 5784 5784 5783 5783 5782 5781 5781 5779 5778 5776 5774 5773 5772 5770 5769 5769 5767 5766 5765 5763 5762 5760 5758 5755 5751 5748 5747 5746 5744 5742 5742 5744 5745 5747 5748 5748 5749 5751 5753 5754 5753 5751 5751 5751 5753 5754 5754 5753 5753 5754 5754 5752 5752 5753 5753 5754 5755 5757 5757 5757 5757 5757 5758 5758 5757 5757 5756 5756 5755 5753
5773 5773 5774 5775 5775 5776 5776 5776 5777 5777 5777 5777 5776 5776 5776 5776 5776 5775 5775 5774 5773 5772 5771 5769 5768 5766 5765 5763 5762 5761 5760 5758 5757 5755 5752 5750 5749 5746 5741 5738 5736 5734 5731 5731 5731 5732 5734 5735 5737 5738 5739 5740 5743 5744 5745 5745 5744 5744 5745 5746 5747 5748 5748 5748 5748 5747 5747 5747 5748 5749 5750 5751 5752 5752 5752 5752 5753 5753 5753 5752 5752 5752 5751 5750 5749
5767 5767 5768 5768 5769 5769 5769 5769 5769 5769 5768 5768 5768 5768 5768 5768 5768 5767 5766 5765 5764 5763 5762 5760 5759 5758 5756 5755 5754 5752 5750 5749 5748 5744 5740 5739 5737 5733 5728 5725 5722 5718 5714 5715 5718 5720 5721 5724 5728 5730 5732 5733 5734 5735 5736 5738 5738 5739 5740 5741 5742 5741 5741 5741 5740 5741 5741 5742 5743 5744 5745 5746 5746 5746 5746 5747 5748 5748 5747 5747 5747 5747 5746 5745 5744
5760 5760 5761 5761 5762 5762 5762 5761 5761 5761 5760 5760 5760 5760 5760 5760 5760 5759 5758 5757 5756 5755 5753 5752 5751 5750 5748 5747 5746 5743 5741 5741 5738 5733 5729 5728 5726 5721 5715 5711 5706 5700 5696 5697 5701 5705 5709 5715 5720 5722 5724 5725 5727 5728 5730 5732 5734 5734 5734 5734 5734 5733 5733 5733 5734 5735 5736 5738 5739 5740 5740 5740 5741 5741 5741 5742 5743 5743 5742 5742 5742 5742 5741 5741 5740
5752 5753 5753 5754 5754 5754 5754 5754 5754 5753 5753 5752 5752 5752 5752 5752 5752 5751 5750 5748 5747 5746 5745 5744 5742 5741 5739 5738 5737 5735 5733 5732 5729 5723 5720 5719 5716 5710 5705 5698 5690 5683 5681 5683 5687 5693 5701 5708 5712 5712 5714 5718 5721 5722 5724 5726 5727 5726 5726 5726 5726 5726 5727 5728 5730 5731 5732 5733 5734 5735 5735 5735 5736 5736 5736 5737 5738 5737 5737 5737 5737 5737 5737 5736 5736
5745 5745 5746 5746 5747 5747 5747 5746 5746 5746 5745 5744 5744 5744 5744 5743 5743 5743 5742 5740 5739 5738 5737 5736 5734 5733 5731 5730 5728 5727 5726 5725 5721 5716 5714 5712 5707 5701 5697 5692 5683 5676 5675 5678 5682 5687 5695 5701 5703 5704 5707 5711 5713 5715 5716 5717 5718 5718 5718 5719 5720 5721 5722 5724 5725 5726 5727 5728 5729 5729 5729 5730 5731 5731 5732 5732 5732 5733 5733 5732 5732 5732 5732 5732 5731
5737 5738 5739 5739 5740 5740 5740 5739 5739 5738 5737 5736 5736 5735 5735 5735 5735 5734 5733 5732 5731 5730 5729 5728 5727 5725 5724 5722 5721 5719 5719 5718 5714 5709 5707 5706 5700 5694 5690 5687 5681 5675 5673 5675 5679 5684 5689 5694 5698 5700 5702 5704 5706 5708 5710 5710 5710 5711 5713 5714 5715 5716 5718 5719 5720 5721 5722 5723 5723 5724 5724 5725 5726 5727 5727 5727 5728 5728 5728 5728 5728 5728 5728 5727 5727
5731 5731 5732 5732 5733 5733 5733 5732 5731 5730 5729 5728 5727 5727 5726 5726 5726 5726 5725 5724 5723 5722 5722 5721 5720 5718 5717 5716 5715 5713 5712 5711 5707 5702 5699 5697 5693 5689 5686 5683 5678 5674 5674 5676 5678 5681 5685 5690 5694 5696 5697 5699 5701 5703 5704 5704 5705 5706 5708 5709 5710 5712 5713 5715 5716 5717 5717 5718 5718 5719 5720 5721 5721 5722 5722 5723 5723 5723 5723 5723 5723 5723 5723 5723 5723
5724 5725 5725 5726 5726 5726 5725 5724 5723 5722 5722 5721 5720 5719 5719 5719 5718 5718 5717 5716 5715 5715 5715 5714 5713 5711 5710 5709 5709 5708 5706 5705 5701 5697 5694 5691 5689 5687 5686 5683 5679 5675 5675 5678 5680 5681 5683 5686 5690 5692 5693 5695 5696 5697 5699 5700 5701 5702 5704 5705 5706 5708 5709 5710 5711 5711 5712 5712 5713 5714 5715 5716 5716 5717 5717 5718 5718 5718 5718 5718 5718 5718 5718 5718 5718
5718 5718 5719 5719 5719 5718 5718 5717 5717 5716 5715 5714 5713 5712 5712 5711 5711 5711 5710 5709 5709 5709 5708 5708 5706 5705 5703 5702 5702 5702 5701 5699 5697 5694 5691 5689 5688 5687 5687 5686 5685 5682 5681 5682 5684 5684 5684 5685 5688 5689 5690 5690 5691 5693 5694 5696 5698 5699 5700 5701 5702 5703 5704 5705 5706 5706 5707 5708 5708 5709 5710 5710 5711 5712 5712 5713 5713 5713 5713 5713 5713 5713 5714 5714 5713
5711 5712 5712 5712 5712 5712 5711 5710 5710 5709 5708 5706 5706 5705 5705 5705 5704 5704 5703 5703 5703 5702 5702 5701 5699 5697 5696 5695 5695 5695 5695 5694 5692 5690 5688 5687 5686 5686 5685 5685 5686 5685 5684 5683 5682 5681 5681 5682 5684 5685 5686 5687 5689 5690 5691 5693 5694 5695 5696 5697 5698 5699 5700 5701 5701 5702 5702 5703 5704 5704 5705 5706 5706 5707 5707 5708 5708 5708 5708 5709 5709 5709 5709 5709 5709
5704 5705 5705 5705 5704 5704 5703 5703 5702 5701 5700 5699 5698 5698 5698 5698 5698 5697 5697 5697 5696 5696 5695 5694 5693 5691 5690 5689 5689 5689 5689 5688 5687 5687 5685 5684 5683 5683 5682 5682 5682 5681 5681 5680 5679 5678 5678 5679 5681 5682 5683 5684 5685 5686 5688 5689 5690 5691 5692 5693 5694 5695 5695 5696 5697 5697 5698 5698 5699 5700 5701 5701 5702 5702 5703 5703 5703 5703 5704 5704 5704 5704 5704 5704 5704
5697 5697 5697 5696 5696 5696 5695 5695 5694 5694 5693 5692 5692 5692 5692 5692 5692 5691 5691 5690 5690 5690 5689 5688 5687 5686 5684 5682 5683 5683 5683 5682 5682 5682 5681 5680 5680 5679 5679 5679 5678 5678 5677 5676 5676 5676 5676 5677 5678 5679 5680 5681 5682 5683 5684 5685 5686 5687 5687 5688 5689 5690 5691 5692 5692 5693 5693 5694 5695 5695 5696 5697 5697 5697 5698 5698 5698 5699 5699 5699 5699 5699 5699 5699 5699
5689 5689 5689 5689 5688 5688 5688 5687 5687 5687 5686 5686 5686 5685 5685 5686 5685 5685 5685 5684 5684 5684 5683 5682 5682 5680 5679 5678 5678 5677 5676 5676 5677 5676 5675 5675 5676 5676 5676 5676 5675 5674 5674 5674 5674 5674 5675 5675 5676 5677 5677 5678 5679 5680 5680 5681 5682 5682 5683 5685 5686 5686 5687 5688 5688 5688 5689 5690 5690 5691 5691 5692 5692 5692 5693 5693 5693 5694 5694 5694 5694 5695 5695 5694 5694
5682 5681 5682 5682 5682 5681 5681 5681 5681 5680 5680 5680 5679 5679 5679 5679 5679 5679 5679 5678 5678 5677 5677 5676 5676 5676 5674 5673 5673 5672 5671 5671 5671 5670 5670 5670 5670 5671 5671 5671 5671 5671 5671 5671 5672 5672 5673 5673 5674 5674 5675 5676 5676 5677 5677 5678 5678 5679 5680 5681 5682 5682 5682 5683 5683 5684 5684 5685 5685 5686 5686 5687 5687 5688 5688 5688 5689 5689 5689 5689 5690 5690 5690 5689 5689
5674 5674 5675 5675 5675 5675 5675 5675 5674 5674 5673 5673 5673 5672 5673 5673 5673 5673 5672 5672 5672 5671 5671 5670 5671 5671 5670 5669 5669 5669 5668 5666 5665 5664 5664 5664 5665 5666 5666 5665 5665 5665 5667 5668 5669 5670 5670 5670 5671 5672 5672 5672 5673 5673 5674 5675 5675 5675 5676 5677 5677 5677 5677 5678 5678 5678 5679 5679 5680 5680 5681 5681 5682 5683 5683 5683 5684 5684 5684 5685 5685 5685 5685 5685 5684
5667 5667 5668 5668 5668 5668 5668 5668 5668 5667 5667 5667 5666 5666 5666 5667 5667 5666 5666 5666 5666 5665 5665 5665 5665 5665 5665 5665 5664 5664 5663 5661 5660 5659 5659 5659 5659 5660 5660 5661 5660 5660 5661 5662 5663 5664 5664 5665 5666 5666 5667 5667 5668 5669 5669 5670 5670 5671 5671 5671 5672 5672 5672 5672 5673 5673 5673 5674 5674 5675 5675 5676 5677 5677 5678 5678 5678 5679 5679 5679 5680 5680 5680 5680 5680